TimeEDT,TemperatureF,Dew PointF,Humidity,Sea Level PressureIn,VisibilityMPH,Wind Direction,Wind SpeedMPH,Gust SpeedMPH,PrecipitationIn,Events,Conditions,WindDirDegrees,DateUTC
12:15 AM,55.4,53.6,94,30.07,10.0,Calm,Calm,-,N/A,,Clear,0,2013-09-04 04:15:00
12:35 AM,55.4,53.6,94,30.07,10.0,Calm,Calm,-,N/A,,Clear,0,2013-09-04 04:35:00
12:55 AM,53.6,51.8,94,30.07,10.0,Calm,Calm,-,N/A,,Clear,0,2013-09-04 04:55:00
1:15 AM,53.6,53.6,100,30.08,10.0,Calm,Calm,-,N/A,,Clear,0,2013-09-04 05:15:00
1:35 AM,53.6,53.6,100,30.08,10.0,Calm,Calm,-,N/A,,Clear,0,2013-09-04 05:35:00
1:55 AM,51.8,51.8,100,30.09,10.0,Calm,Calm,-,N/A,,Clear,0,2013-09-04 05:55:00
2:15 AM,51.8,51.8,100,30.09,7.0,Calm,Calm,-,N/A,,Clear,0,2013-09-04 06:15:00
2:35 AM,51.8,51.8,100,30.09,7.0,Calm,Calm,-,N/A,,Clear,0,2013-09-04 06:35:00
2:55 AM,51.8,51.8,100,30.09,5.0,Calm,Calm,-,N/A,,Clear,0,2013-09-04 06:55:00
3:15 AM,51.8,51.8,100,30.09,7.0,Calm,Calm,-,N/A,,Clear,0,2013-09-04 07:15:00
3:35 AM,50.0,50.0,100,30.09,7.0,Calm,Calm,-,N/A,,Clear,0,2013-09-04 07:35:00
3:55 AM,50.0,50.0,100,30.10,7.0,Calm,Calm,-,N/A,,Clear,0,2013-09-04 07:55:00
4:15 AM,50.0,50.0,100,30.10,7.0,Calm,Calm,-,N/A,,Clear,0,2013-09-04 08:15:00
4:35 AM,50.0,50.0,100,30.10,7.0,Calm,Calm,-,N/A,,Clear,0,2013-09-04 08:35:00
4:55 AM,50.0,50.0,100,30.11,7.0,Calm,Calm,-,N/A,,Clear,0,2013-09-04 08:55:00
5:15 AM,50.0,50.0,100,30.11,10.0,Calm,Calm,-,N/A,,Clear,0,2013-09-04 09:15:00
5:35 AM,50.0,50.0,100,30.11,7.0,Calm,Calm,-,N/A,,Clear,0,2013-09-04 09:35:00
5:55 AM,50.0,50.0,100,30.11,2.0,Calm,Calm,-,N/A,,Clear,0,2013-09-04 09:55:00
6:15 AM,50.0,50.0,100,30.11,1.0,Calm,Calm,-,N/A,,Mist,0,2013-09-04 10:15:00
6:35 AM,50.0,50.0,100,30.11,5.0,Calm,Calm,-,N/A,,Clear,0,2013-09-04 10:35:00
6:55 AM,50.0,50.0,100,30.12,4.0,Calm,Calm,-,N/A,,Clear,0,2013-09-04 10:55:00
7:15 AM,50.0,50.0,100,30.13,7.0,Calm,Calm,-,N/A,,Clear,0,2013-09-04 11:15:00
7:35 AM,48.2,48.2,100,30.14,7.0,Calm,Calm,-,N/A,,Clear,0,2013-09-04 11:35:00
7:55 AM,50.0,50.0,100,30.14,5.0,Calm,Calm,-,N/A,,Clear,0,2013-09-04 11:55:00
8:15 AM,51.8,51.8,100,30.15,7.0,Calm,Calm,-,N/A,,Clear,0,2013-09-04 12:15:00
8:35 AM,55.4,55.4,100,30.15,10.0,Calm,Calm,-,N/A,,Clear,0,2013-09-04 12:35:00
8:55 AM,57.2,57.2,100,30.16,10.0,West,3.5,-,N/A,,Clear,260,2013-09-04 12:55:00
9:15 AM,60.8,59.0,94,30.16,10.0,West,4.6,-,N/A,,Clear,270,2013-09-04 13:15:00
9:35 AM,62.6,59.0,88,30.16,10.0,West,4.6,-,N/A,,Clear,270,2013-09-04 13:35:00
9:55 AM,64.4,59.0,83,30.16,10.0,West,4.6,-,N/A,,Clear,270,2013-09-04 13:55:00
10:15 AM,68.0,59.0,73,30.16,10.0,WSW,4.6,-,N/A,,Clear,250,2013-09-04 14:15:00
10:35 AM,68.0,55.4,64,30.17,10.0,West,3.5,-,N/A,,Clear,280,2013-09-04 14:35:00
10:55 AM,69.8,55.4,60,30.16,10.0,Calm,Calm,-,N/A,,Clear,0,2013-09-04 14:55:00
11:15 AM,71.6,55.4,57,30.16,7.0,WSW,4.6,-,N/A,,Clear,240,2013-09-04 15:15:00
11:35 AM,71.6,55.4,57,30.16,10.0,WSW,3.5,-,N/A,,Clear,250,2013-09-04 15:35:00
11:55 AM,71.6,53.6,53,30.16,7.0,Calm,Calm,-,N/A,,Clear,0,2013-09-04 15:55:00
12:15 PM,73.4,53.6,50,30.15,10.0,WSW,5.8,-,N/A,,Clear,240,2013-09-04 16:15:00
12:35 PM,75.2,53.6,47,30.15,10.0,WSW,4.6,-,N/A,,Clear,250,2013-09-04 16:35:00
12:55 PM,75.2,53.6,47,30.15,7.0,WSW,8.1,-,N/A,,Clear,250,2013-09-04 16:55:00
1:15 PM,77.0,53.6,44,30.14,10.0,WNW,5.8,-,N/A,,Clear,300,2013-09-04 17:15:00
1:35 PM,77.0,53.6,44,30.13,10.0,WSW,6.9,-,N/A,,Clear,250,2013-09-04 17:35:00
1:55 PM,78.8,53.6,42,30.13,10.0,WNW,6.9,-,N/A,,Clear,290,2013-09-04 17:55:00
2:15 PM,78.8,51.8,39,30.12,10.0,SW,3.5,-,N/A,,Clear,220,2013-09-04 18:15:00
2:35 PM,80.6,51.8,37,30.12,7.0,NW,5.8,-,N/A,,Clear,310,2013-09-04 18:35:00
2:55 PM,78.8,51.8,39,30.12,10.0,West,10.4,-,N/A,,Clear,260,2013-09-04 18:55:00
3:15 PM,80.6,51.8,37,30.12,7.0,NW,5.8,9.2,N/A,,Clear,320,2013-09-04 19:15:00
3:35 PM,80.6,51.8,37,30.12,7.0,West,8.1,-,N/A,,Clear,280,2013-09-04 19:35:00
3:55 PM,80.6,51.8,37,30.11,7.0,West,8.1,-,N/A,,Clear,280,2013-09-04 19:55:00
4:15 PM,80.6,51.8,37,30.11,7.0,NW,8.1,-,N/A,,Clear,320,2013-09-04 20:15:00
4:35 PM,80.6,50.0,34,30.11,7.0,West,3.5,-,N/A,,Clear,260,2013-09-04 20:35:00
4:55 PM,80.6,50.0,34,30.11,7.0,NNW,4.6,-,N/A,,Clear,330,2013-09-04 20:55:00
5:15 PM,80.6,50.0,34,30.11,7.0,West,8.1,-,N/A,,Clear,270,2013-09-04 21:15:00
5:35 PM,80.6,50.0,34,30.11,10.0,WNW,8.1,-,N/A,,Clear,300,2013-09-04 21:35:00
5:55 PM,78.8,50.0,36,30.11,10.0,WNW,9.2,16.1,N/A,,Clear,300,2013-09-04 21:55:00
6:15 PM,78.8,50.0,36,30.10,7.0,NW,6.9,-,N/A,,Clear,320,2013-09-04 22:15:00
6:35 PM,78.8,51.8,39,30.10,7.0,WNW,6.9,-,N/A,,Clear,300,2013-09-04 22:35:00
6:55 PM,77.0,51.8,41,30.09,7.0,WNW,5.8,-,N/A,,Clear,300,2013-09-04 22:55:00
7:15 PM,77.0,53.6,44,30.09,7.0,West,4.6,-,N/A,,Clear,280,2013-09-04 23:15:00
7:35 PM,73.4,53.6,50,30.09,10.0,West,3.5,-,N/A,,Clear,280,2013-09-04 23:35:00
7:55 PM,69.8,55.4,60,30.10,10.0,West,3.5,-,N/A,,Clear,280,2013-09-04 23:55:00
8:15 PM,69.8,55.4,60,30.11,10.0,WNW,3.5,-,N/A,,Clear,300,2013-09-05 00:15:00
8:35 PM,66.2,55.4,68,30.12,10.0,NW,4.6,-,N/A,,Clear,310,2013-09-05 00:35:00
8:55 PM,64.4,53.6,68,30.12,10.0,WNW,3.5,-,N/A,,Clear,290,2013-09-05 00:55:00
9:15 PM,64.4,55.4,73,30.12,10.0,Calm,Calm,-,N/A,,Clear,0,2013-09-05 01:15:00
9:35 PM,64.4,55.4,73,30.12,10.0,WSW,3.5,-,N/A,,Clear,250,2013-09-05 01:35:00
9:55 PM,60.8,57.2,88,30.13,10.0,Calm,Calm,-,N/A,,Clear,0,2013-09-05 01:55:00
10:15 PM,62.6,57.2,82,30.14,10.0,Calm,Calm,-,N/A,,Clear,0,2013-09-05 02:15:00
10:35 PM,60.8,55.4,82,30.14,10.0,West,3.5,-,N/A,,Clear,280,2013-09-05 02:35:00
10:55 PM,60.8,57.2,88,30.14,10.0,West,3.5,-,N/A,,Clear,270,2013-09-05 02:55:00
11:15 PM,60.8,57.2,88,30.14,10.0,West,3.5,-,N/A,,Clear,270,2013-09-05 03:15:00
11:35 PM,59.0,55.4,88,30.14,10.0,West,3.5,-,N/A,,Clear,270,2013-09-05 03:35:00
11:55 PM,59.0,55.4,88,30.14,10.0,WSW,3.5,-,N/A,,Clear,250,2013-09-05 03:55:00